859  
ASUS41 KBOX 220110  
RWRBOX  
 
REGIONAL WEATHER ROUNDUP  
NATIONAL WEATHER SERVICE TAUNTON MA  
800 PM EST TUE NOV 21 2017  
 
NOTE: "FAIR" INDICATES FEW OR NO CLOUDS BELOW 12,000 FEET WITH NO  
SIGNIFICANT WEATHER AND/OR S TO VISIBILITY
.  
 
MAZALL-220200-  
EASTERN MASSACHUSETTS  
 
CITY SKY/WX TMP DP RH WIND PRES REMARKS
 
BOSTON CLOUDY 51 38 60 SW13 30.01S  
BEVERLY CLOUDY 51 36 56 SW9 30.00R  
LAWRENCE CLEAR 52 35 52 SW7 30.01S  
BEDFORD CLOUDY 49 34 56 SW13 29.99S  
BLUE HILL N/A 50 38 63 S20G30 29.99S  
NORWOOD PTCLDY 54 41 61 SW13 30.01R  
MARSHFIELD CLOUDY 55 43 62 SW14G20 30.01S  
PLYMOUTH CLOUDY 56 43 61 SW16G25 30.02F  
TAUNTON CLOUDY 55 44 66 S12G18 30.03S  
NEW BEDFORD CLOUDY 55 43 63 SW13G24 30.03F  

 
 
MAZALL-220200-  
CAPE COD AND THE ISLANDS  
 
CITY SKY/WX TMP DP RH WIND PRES REMARKS
 
FALMOUTH CLOUDY 54 43 66 SW20G28 30.05F  
HYANNIS CLOUDY 56 44 64 SW18G25 30.04S  
CHATHAM CLOUDY 52 46 80 SW9G16 30.07F  
PROVINCETOWN CLOUDY 53 44 71 S10 30.05R  
NANTUCKET CLOUDY 55 47 74 S18 30.09F  
MARTHAS VNYRD PTCLDY 56 45 66 SW18G25 30.06F  

 
 
MAZALL-220200-  
CENTRAL AND WESTERN MASSACHUSETTS  
 
CITY SKY/WX TMP DP RH WIND PRES REMARKS
 
WORCESTER CLEAR 45 33 63 SW17 29.98S  
FITCHBURG CLEAR 50 36 58 SW6 29.99R  
ORANGE CLOUDY 48 37 65 S12 29.98R  
SPRINGFIELD PTCLDY 48 36 64 S9 29.99S  
WESTFIELD PTCLDY 48 38 68 S12 30.00S  
NORTH ADAMS PTCLDY 51 26 37 S3 29.95S  
PITTSFIELD CLOUDY 49 27 42 S14G26 29.94R  

 
 
RIZALL-220200-  
RHODE ISLAND  
 
CITY SKY/WX TMP DP RH WIND PRES REMARKS
 
PROVIDENCE CLOUDY 53 44 71 SW14 30.04F  
NEWPORT PTCLDY 56 44 64 SW14G26 30.04F  
BLOCK ISLAND CLOUDY 57 46 66 SW20G31 30.06S  
SMITHFIELD CLOUDY 49 40 71 SW10G21 30.01S  
WESTERLY PTCLDY 57 46 66 SW14 30.06R  

 
 
CTZALL-220200-  
CONNECTICUT  
 
CITY SKY/WX TMP DP RH WIND PRES REMARKS
 
BRADLEY INTL CLOUDY 48 38 68 S10 30.02R  
HARTFORD CLEAR 50 40 68 S7 30.03R  
BRIDGEPORT CLEAR 55 43 63 SW18G26 30.04S  
DANBURY CLEAR 46 38 73 CALM 30.04R  
GROTON CLOUDY 55 45 68 SW15 30.05R  
NEW HAVEN PTCLDY 54 43 66 SW9G18 30.05R  
CHESTER FAIR 52 45 76 SW9G22 30.04R  
MERIDEN CLEAR 49 40 71 S6 30.04R  
WILLIMANTIC PTCLDY 50 39 66 SW7 30.04S  
OXFORD CLEAR 46 39 76 SW5 30.04R  

 
 
MEZ002-015-021-024-NHZ003-005-008-011-012-014-VTZ005-008-220200-  
NORTHERN NEW ENGLAND  
 
CITY SKY/WX TMP DP RH WIND PRES REMARKS
 
PORTLAND ME CLEAR 48 38 68 S6 29.97R  
BANGOR ME CLOUDY 48 37 65 S9 29.93S  
CONCORD NH CLOUDY 46 33 60 S8 29.97R  
MANCHESTER NH PTCLDY 47 34 60 S7 29.97R  
NASHUA NH CLEAR 45 35 68 CALM 29.99R  
PORTSMOUTH NH PTCLDY 48 33 56 S7 29.97R  
JAFFREY NH CLOUDY 47 36 65 S9 29.96R  
KEENE NH CLOUDY 41 32 70 SW7 29.97R  
BURLINGTON VT PTCLDY 50 24 36 S15 29.86R  
MT. WASHINGTON PTCLDY 25 18 74 W51 N/A WCI 4  

 
 
NYZ052-076-220200-  
EASTERN NEW YORK  
 
CITY SKY/WX TMP DP RH WIND PRES REMARKS
 
ALBANY PTCLDY 51 27 39 S15G22 29.94R  
NEW YORK CITY MOCLDY 53 38 56 S7 30.05R  

 
 
ANZALL-220200-  
MARINE OBSERVATIONS  
 
STATION/POSITION TIME TEMP WIND PRES VSBY WAVE
 
AIR SEA DIR/SP/G HT/PER  
(UTC) (F) (DEG/KT/KT) (MB) (MI) (FT/S)  
BOSTON BUOY 2350 53 50 190/ 19/ 21 1014.9 3/ 4  
BUZZARDS BAY 0000 57 210/ 25/ 29 1017.9R  
NANTUCKET SOUND 2350 54 49 210/ 19/ 21 1018.2 2/ 3  
MASS BAY-STELLWA 0004 52 49 190/ 14/ 17 1015.5R 4/ 5  
ISLE OF SHOALS 0000 51 200/ 24/ 25 1014.8R  
S OF BLOCK IS NOT AVBL  

 
   
.....................KEY......................
 
 
SKY/WX - SKY CONDITION/PRESENT WEATHER  
TMP - TEMPERATURE IN FAHRENHEIT  
DWPT - DEWPOINT IN FAHRENHEIT  
RH - RELATIVE HUMIDITY IN PERCENT  
WIND - DIRECTION AND SPEED IN MPH  
PRES - MEAN SEA LEVEL PRESSURE IN INCHES OF HG  
WCI - WIND CHILL INDEX  
VSB - VISIBILITY IN MILES  
HX - HEAT INDEX  
TC - TEMPERATURE IN CELSIUS  
VRB - VARIABLE WIND DIRECTION  
N/A - NOT AVAILABLE  
 
 
CLICK HERE TO GO TO PREVIOUS BULLETINS.

The Nexlab MA Page
The Nexlab RI Page
The Nexlab NH Page
The Nexlab CT Page Main Text Page